Regional Weather Roundup
Issued by NWS Kansas City/Pleasant Hill, MO

Home | Current Version | Previous Version | Graphics & Text | Print | Product List | Glossary Off
Versions: 1 2 3 4 5 6 7 8 9 10 11 12 13 14 15 16 17 18 19 20 21 22 23 24 25 26 27 28 29 30 31 32 33 34 35 36 37 38 39 40 41 42 43 44 45 46 47 48 49 50

000
ASUS43 KEAX 301210
RWREAX

WEATHER ROUNDUP FOR EASTERN KANSAS AND NORTHWEST MISSOURI
NATIONAL WEATHER SERVICE KANSAS CITY/PLEASANT HILL MO
600 AM CST FRI JAN 30 2015

KSZ040-057-103>105-MOZ028-029-037-043-301300-
...KANSAS CITY METROPOLITAN AREA...

CITY           SKY/WX    TMP DP  RH WIND       PRES   REMARKS
K.C. INTL      PTCLDY    20  18  92 NE6       30.52F WCI  12
6HR MIN TEMP:  19; 6HR MAX TEMP:  26;

K.C. DOWNTOWN  CLEAR     23  20  88 CALM      30.54S
6HR MIN TEMP:  22; 6HR MAX TEMP:  31;

LEES SUMMIT    CLEAR     23  19  85 N6        30.52F WCI  16
6HR MIN TEMP:  23; 6HR MAX TEMP:  29;

OLATHE - IXD   CLEAR     19  16  88 N5        30.53F WCI  12
6HR MIN TEMP:  18; 6HR MAX TEMP:  25;

OLATHE - OJC   CLEAR     23  21  92 N5        30.51F WCI  17
6HR MIN TEMP:  22; 6HR MAX TEMP:  30;

LAWRENCE       CLEAR     16  14  92 NW5       30.55S WCI   9

$$

MOZ001>008-011>017-020>025-030>033-038>040-044>046-053-054-301300-
...NORTHERN AND CENTRAL MISSOURI...

CITY           SKY/WX    TMP DP  RH WIND       PRES   REMARKS
ST. JOSEPH     PTCLDY    13  10  88 N5        30.55S WCI   5
6HR MIN TEMP:  11; 6HR MAX TEMP:  22;

MOSBY          SUNNY     19  18  93 CALM      30.55R
WARRENSBURG    CLEAR     23  21  93 NW5       30.54S WCI  17
WHITEMAN AFB   CLEAR     21  18  87 N3        30.52F
6HR MIN TEMP:  21; 6HR MAX TEMP:  28;

CLINTON        CLEAR     27  23  86 N5        30.53S WCI  21
SEDALIA        CLEAR     24  20  84 N6        30.53S WCI  17
6HR MIN TEMP:  24; 6HR MAX TEMP:  30;

WARSAW         NOT AVBL
MARSHALL       CLEAR     27  23  86 N6        30.55R WCI  20
CHILLICOTHE      N/A     23  17  78 N3        30.56R
6HR MIN TEMP:  23; 6HR MAX TEMP:  31;

MOBERLY        CLEAR     23  18  80 N3        30.53S
KIRKSVILLE     CLEAR     19  16  88 N5        30.53R WCI  12
6HR MIN TEMP:  19; 6HR MAX TEMP:  27;


$$

MOZ041-047>049-056>058-063>065-088>090-097-301300-
...EASTERN AND SOUTHERN MISSOURI...

CITY           SKY/WX    TMP DP  RH WIND       PRES   REMARKS
ST. LOUIS INTL MOCLDY    30  19  63 N12       30.52R WCI  20
6HR MIN TEMP:  30; 6HR MAX TEMP:  36;

SPIRIT OF STL  MOCLDY    28  19  69 N7        30.53R WCI  21
COLUMBIA       CLEAR     22  18  85 N6        30.51S WCI  14
JEFFERSON CITY CLEAR     24  20  84 CALM      30.54S
MEXICO         CLEAR     25  23  93 N6        30.52R WCI  18
HANNIBAL       CLEAR     23  16  74 CALM      30.54R
ROLLA          CLEAR     24  20  84 N8        30.47S WCI  15
LEBANON        CLEAR     25  21  86 N6        30.49R WCI  18
OSAGE BEACH    CLEAR     25  18  74 N5        30.50S WCI  19
SPRINGFIELD    CLEAR     21  18  88 N7        30.48R WCI  12
NEVADA         PTCLDY    21  19  93 N5        30.54S WCI  15
JOPLIN         CLEAR     25  22  88 NE5       30.52S WCI  19
WEST PLAINS    CLEAR     26  20  77 N6        30.47R WCI  19

$$

IAZ060-094-KSZ022-034>040-054-083-096-NEZ052-066-093-301300-
...KANSAS...SOUTHEAST NEBRASKA AND IOWA...

CITY           SKY/WX    TMP DP  RH WIND       PRES   REMARKS
TOPEKA         PTCLDY    18  15  88 CALM      30.55S
6HR MIN TEMP:  18; 6HR MAX TEMP:  24;

MANHATTAN      PTCLDY    17  15  92 CALM      30.53S
EMPORIA        CLEAR     20  19  96 NW3       30.52R
CHANUTE        PTCLDY    21  19  92 N3        30.53R
WICHITA        MOCLDY    27  21  78 NE5       30.52S WCI  22
OMAHA          PTCLDY    19  17  92 CALM      30.53F
LINCOLN        CLEAR     16  13  88 CALM      30.53F
FALLS CITY     MOCLDY    16  12  84 CALM      30.52F
LAMONI         CLEAR     17  14  88 N6        30.52S WCI   9
DES MOINES     CLEAR     19  12  74 CALM      30.55S

$$



USA.gov is the U.S. government's official web portal to all federal, state and local government web resources and services.